Weather in Swords

Ireland     53°27′37″N   6°13′32″W
В апреле 2022 года жителям России запретили посещать сайт meteo.paraplan.net по решению Генеральной прокуратуры. Аудитория сайта уменьшилась в 10 раз. Владельцы сайта не видят смысла в поддержке погодного сервера в таких условиях. Сайт будет закрыт в октябре.
temp.,
°C
wind,
m/s
gust,
m/s
humid.,
%
clouds,
%
prec.,
mm/h
press.,
hPa
HPBL,
m
25 september, sun
sun2501:00+7nw359333 0.0 1025104
04:00+7wnw338692 0.0 102481
07:00+8w3482100 0.0 102476
10:00+12w4674100 0.0 1023239
13:00+15w6867100 0.0 10201059
16:00+14w61073100 0.0 10171010
19:00+14w71478100 0.0 1014825
22:00+13wsw91782100 0.1 1011918
26 september, mon
mon2601:00+14wnw101684100 0.4 10081449
04:00+11nw6138418 0.3 1007658
07:00+11nw71368100 0.4 10081095
10:00+12nw811696 0.0 1009965
13:00+13nw71258100 0.0 10101640
16:00+13wnw61167100 0.1 10081433
19:00+11wnw61178100 0.2 1008597
22:00+11wnw61268100 0.1 10081088
27 september, tue
tue2701:00+11wnw61274100 0.1 1007981
04:00+11wnw7117012 0.1 10061036
07:00+12nw61057100 0.1 10041148
10:00+12wnw61162100 0.0 10041445
13:00+12nw71262100 0.0 10031781
16:00+13nw8125942 0.1 10021752
19:00+10nw611725 0.1 1002561
22:00+9wnw7137593 0.0 1003671
28 september, wed
wed2801:00+8wnw612885 0.1 1003416
04:00+7wnw5119063 0.0 1003326
07:00+6wnw5109615 0.1 1004242
10:00+11nw6107720 0.0 1005640
13:00+14nnw696268 0.1 10051479
16:00+14nnw686279 0.1 10051397
19:00+11nw598568 0.8 1006370
22:00+9wnw5119525 0.0 1007360
29 september, thu
thu2901:00+8wnw5109620 0.0 1007307
04:00+7wnw5119732 0.0 1007309
07:00+7wnw5119610 0.0 1008279
10:00+12nnw58825 0.0 1010382
13:00+15n456719 0.0 1011974
16:00+15nne336519 0.1 1011844
19:00+12se1181100 0.1 101218
22:00+12sw3575100 0.0 1012124